Zurück zum Katalog

STARLINK-36915

AktivKommunikationVLEO
NORAD 68061·PAYLOAD·🇺🇸 United States

Gestartet Mar 2, 2026 von Vandenberg Space Force Base

Loading…

Nächste Überflüge (nächste 24 Stunden)

TLE

AktuellSource: CelesTrak SupGP

Epoche: Sep 14, 2026, 21:15 UTC

1 68061C 26041X   26257.88590278  .00051228  00000+0  15136-2 0  2575
2 68061  53.1582 245.6800 0001363  96.7918 169.5258 15.34364548    15

Verfolge STARLINK-36915 in Echtzeit mit AllMySat

Download on the App Store